�������l�o���
Date,Time,MP-1(��Sv/h),MP-2(��Sv/h),MP-3(��Sv/h),MP-4(��Sv/h),MP-5(��Sv/h),MP-6(��Sv/h),MP-7(��Sv/h),MP-8(��Sv/h),����,����(m/s),���J
2018/07/16,00:00,0.888,1.266,0.882,1.565,1.119,0.478,0.837,0.790,��,3.1,��
2018/07/16,00:10,0.885,1.264,0.883,1.564,1.119,0.479,0.837,0.790,��,4.1,��
2018/07/16,00:20,0.887,1.265,0.883,1.566,1.120,0.479,0.834,0.791,��,3.5,��
2018/07/16,00:30,0.886,1.267,0.883,1.564,1.120,0.479,0.837,0.790,��,4.3,��
2018/07/16,00:40,0.886,1.263,0.883,1.566,1.116,0.479,0.836,0.791,��,4.5,��
2018/07/16,00:50,0.886,1.264,0.883,1.565,1.119,0.480,0.836,0.789,��,4.2,��
2018/07/16,01:00,0.888,1.263,0.883,1.564,1.120,0.479,0.835,0.792,��쐼,3.9,��
2018/07/16,01:10,0.889,1.263,0.882,1.565,1.120,0.480,0.835,0.790,��쐼,3.1,��
2018/07/16,01:20,0.887,1.265,0.885,1.564,1.120,0.480,0.837,0.790,��쐼,2.3,��
2018/07/16,01:30,0.886,1.265,0.883,1.566,1.121,0.479,0.835,0.790,��쐼,0.6,��
2018/07/16,01:40,0.886,1.263,0.885,1.563,1.117,0.479,0.834,0.791,-,CALM,��
2018/07/16,01:50,0.886,1.265,0.882,1.566,1.120,0.481,0.837,0.790,�k�k��,1.4,��
2018/07/16,02:00,0.886,1.265,0.883,1.566,1.118,0.479,0.835,0.789,�k,1.5,��
2018/07/16,02:10,0.887,1.265,0.886,1.565,1.119,0.480,0.835,0.789,�k,1.9,��
2018/07/16,02:20,0.886,1.265,0.884,1.566,1.121,0.479,0.835,0.791,�k�k��,2.3,��
2018/07/16,02:30,0.888,1.264,0.883,1.562,1.118,0.479,0.835,0.789,�k�k��,2.0,��
2018/07/16,02:40,0.885,1.264,0.885,1.565,1.118,0.481,0.834,0.790,�k��,2.3,��
2018/07/16,02:50,0.888,1.264,0.883,1.565,1.117,0.479,0.834,0.792,���k��,2.0,��
2018/07/16,03:00,0.887,1.263,0.884,1.564,1.118,0.482,0.835,0.792,��,2.0,��
2018/07/16,03:10,0.889,1.263,0.883,1.563,1.118,0.479,0.834,0.790,�쐼,1.4,��
2018/07/16,03:20,0.886,1.263,0.883,1.564,1.117,0.480,0.836,0.789,�쐼,1.5,��
2018/07/16,03:30,0.885,1.263,0.883,1.566,1.119,0.479,0.835,0.790,�쐼,1.7,��
2018/07/16,03:40,0.885,1.263,0.884,1.564,1.120,0.481,0.836,0.791,���쐼,0.9,��
2018/07/16,03:50,0.888,1.264,0.885,1.565,1.117,0.480,0.836,0.790,�k�k��,1.1,��
2018/07/16,04:00,0.888,1.263,0.884,1.563,1.120,0.480,0.835,0.791,�k,1.7,��
2018/07/16,04:10,0.886,1.263,0.884,1.563,1.118,0.481,0.833,0.789,�k�k��,1.7,��
2018/07/16,04:20,0.887,1.261,0.884,1.562,1.119,0.479,0.835,0.790,-,CALM,��
2018/07/16,04:30,0.885,1.260,0.884,1.564,1.117,0.480,0.835,0.790,��,0.6,��
2018/07/16,04:40,0.885,1.262,0.884,1.565,1.118,0.479,0.834,0.791,�k��,1.1,��
2018/07/16,04:50,0.886,1.262,0.884,1.563,1.119,0.478,0.836,0.791,�k�k��,1.7,��
2018/07/16,05:00,0.885,1.263,0.881,1.565,1.116,0.477,0.836,0.790,�k��,2.3,��
2018/07/16,05:10,0.886,1.265,0.882,1.564,1.118,0.479,0.836,0.789,�k�k��,2.8,��
2018/07/16,05:20,0.886,1.265,0.883,1.565,1.119,0.479,0.836,0.791,�k�k��,1.9,��
2018/07/16,05:30,0.885,1.264,0.882,1.568,1.117,0.480,0.834,0.791,�k,2.2,��
2018/07/16,05:40,0.886,1.262,0.883,1.563,1.119,0.477,0.836,0.792,�k,1.5,��
2018/07/16,05:50,0.887,1.265,0.881,1.566,1.120,0.477,0.836,0.790,�k,2.3,��
2018/07/16,06:00,0.886,1.260,0.881,1.563,1.117,0.479,0.835,0.791,�k�k��,1.7,��
2018/07/16,06:10,0.887,1.262,0.882,1.564,1.117,0.479,0.837,0.792,�k�k��,1.9,��
2018/07/16,06:20,0.887,1.264,0.881,1.564,1.115,0.479,0.836,0.790,�k��,3.2,��
2018/07/16,06:30,0.887,1.263,0.884,1.564,1.117,0.479,0.836,0.792,�k��,1.2,��
2018/07/16,06:40,0.883,1.263,0.883,1.564,1.117,0.480,0.837,0.790,�k�k��,1.2,��
2018/07/16,06:50,0.888,1.263,0.882,1.565,1.118,0.480,0.837,0.790,�k�k��,4.2,��
2018/07/16,07:00,0.889,1.262,0.884,1.564,1.118,0.478,0.837,0.792,�k�k��,3.7,��
2018/07/16,07:10,0.888,1.264,0.883,1.564,1.119,0.480,0.836,0.792,�k�k��,2.6,��
2018/07/16,07:20,0.888,1.265,0.882,1.564,1.117,0.480,0.837,0.791,�k�k��,2.0,��
2018/07/16,07:30,0.887,1.267,0.883,1.567,1.117,0.478,0.837,0.789,�k,1.9,��
2018/07/16,07:40,0.889,1.268,0.883,1.563,1.119,0.478,0.837,0.791,�k�k��,2.6,��
2018/07/16,07:50,0.889,1.264,0.884,1.565,1.113,0.481,0.835,0.791,�k�k��,2.0,��
2018/07/16,08:00,0.887,1.267,0.883,1.566,1.118,0.481,0.838,0.792,�k�k��,1.4,��
2018/07/16,08:10,0.887,1.269,0.882,1.563,1.120,0.480,0.837,0.789,�k�k��,1.7,��
2018/07/16,08:20,0.887,1.268,0.882,1.566,1.120,0.481,0.838,0.787,�k�k��,0.6,��
2018/07/16,08:30,0.886,1.268,0.881,1.566,1.121,0.480,0.837,0.788,�k�k��,0.8,��
2018/07/16,08:40,0.889,1.268,0.884,1.566,1.121,0.480,0.838,0.788,�k�k��,0.6,��
2018/07/16,08:50,0.887,1.269,0.882,1.565,1.119,0.480,0.838,0.788,�k�k��,1.1,��
2018/07/16,09:00,0.890,1.270,0.886,1.566,1.121,0.480,0.837,0.789,-,CALM,��
2018/07/16,09:10,0.889,1.269,0.885,1.568,1.122,0.481,0.838,0.790,�k��,0.6,��
2018/07/16,09:20,0.891,1.269,0.885,1.567,1.122,0.481,0.839,0.790,�k,0.9,��
2018/07/16,09:30,0.890,1.269,0.887,1.568,1.122,0.481,0.836,0.789,�k�k��,0.8,��
2018/07/16,09:40,0.888,1.269,0.886,1.569,1.123,0.480,0.837,0.790,�k��,0.8,��
2018/07/16,09:50,0.890,1.271,0.884,1.565,1.123,0.481,0.838,0.788,-,CALM,��
2018/07/16,10:00,0.893,1.270,0.884,1.566,1.122,0.481,0.838,0.789,-,CALM,��
2018/07/16,10:10,0.893,1.273,0.883,1.564,1.122,0.481,0.839,0.789,���k��,0.8,��
2018/07/16,10:20,0.892,1.271,0.886,1.566,1.126,0.482,0.839,0.790,��쓌,0.9,��
2018/07/16,10:30,0.892,1.271,0.888,1.566,1.126,0.482,0.842,0.788,�쓌,1.2,��
2018/07/16,10:40,0.892,1.271,0.886,1.567,1.126,0.484,0.840,0.789,�쓌,1.5,��
2018/07/16,10:50,0.893,1.270,0.887,1.567,1.127,0.483,0.839,0.789,���쓌,1.9,��
2018/07/16,11:00,0.893,1.271,0.888,1.569,1.126,0.485,0.840,0.790,��,1.2,��
2018/07/16,11:10,0.893,1.272,0.886,1.570,1.124,0.484,0.839,0.787,�k��,1.7,��
2018/07/16,11:20,0.894,1.269,0.886,1.568,1.125,0.482,0.838,0.790,�k��,1.9,��
2018/07/16,11:30,0.895,1.272,0.889,1.569,1.126,0.484,0.837,0.789,�k��,1.9,��
2018/07/16,11:40,0.895,1.274,0.888,1.569,1.128,0.484,0.837,0.789,�k�k��,2.0,��
2018/07/16,11:50,0.897,1.272,0.887,1.572,1.129,0.484,0.839,0.790,�k�k��,0.9,��
2018/07/16,12:00,0.894,1.271,0.889,1.571,1.129,0.483,0.837,0.791,�k�k��,0.9,��
2018/07/16,12:10,0.894,1.271,0.887,1.572,1.127,0.483,0.838,0.791,��,1.1,��
2018/07/16,12:20,0.894,1.271,0.888,1.570,1.127,0.483,0.839,0.790,��,0.6,��
2018/07/16,12:30,0.893,1.271,0.886,1.568,1.127,0.483,0.838,0.789,��,1.1,��
2018/07/16,12:40,0.891,1.272,0.886,1.566,1.126,0.481,0.838,0.790,��,1.1,��
2018/07/16,12:50,0.893,1.272,0.887,1.568,1.126,0.484,0.838,0.790,��쓌,1.4,��
2018/07/16,13:00,0.893,1.274,0.885,1.569,1.127,0.482,0.837,0.791,���쓌,2.3,��
2018/07/16,13:10,0.895,1.274,0.888,1.570,1.128,0.481,0.836,0.791,��,2.8,��
2018/07/16,13:20,0.894,1.274,0.889,1.569,1.129,0.480,0.837,0.789,���쓌,3.2,��
2018/07/16,13:30,0.896,1.274,0.890,1.572,1.129,0.482,0.837,0.789,��,3.0,��
2018/07/16,13:40,0.894,1.276,0.890,1.574,1.129,0.482,0.834,0.791,��,2.6,��
2018/07/16,13:50,0.893,1.273,0.887,1.572,1.130,0.481,0.834,0.789,��,2.8,��
2018/07/16,14:00,0.893,1.273,0.888,1.573,1.128,0.480,0.835,0.789,���쓌,3.5,��
2018/07/16,14:10,0.892,1.277,0.887,1.573,1.127,0.479,0.836,0.789,��,2.9,��
2018/07/16,14:20,0.894,1.274,0.887,1.572,1.129,0.479,0.834,0.790,���쓌,3.9,��
2018/07/16,14:30,0.893,1.274,0.887,1.572,1.129,0.478,0.836,0.788,�쓌,4.3,��
2018/07/16,14:40,0.892,1.275,0.888,1.573,1.128,0.479,0.837,0.791,�쓌,4.2,��
2018/07/16,14:50,0.892,1.275,0.889,1.575,1.128,0.477,0.837,0.790,��쓌,5.1,��
2018/07/16,15:00,0.891,1.275,0.887,1.573,1.128,0.480,0.837,0.787,��쓌,5.6,��
2018/07/16,15:10,0.893,1.276,0.888,1.573,1.130,0.480,0.840,0.791,��,5.1,��
2018/07/16,15:20,0.893,1.275,0.889,1.575,1.129,0.479,0.841,0.791,��,5.0,��
2018/07/16,15:30,0.892,1.276,0.891,1.574,1.131,0.482,0.839,0.789,��,5.1,��
2018/07/16,15:40,0.894,1.274,0.886,1.573,1.132,0.481,0.841,0.790,��,3.9,��
2018/07/16,15:50,0.894,1.276,0.890,1.573,1.130,0.483,0.841,0.789,��쓌,3.5,��
2018/07/16,16:00,0.894,1.275,0.888,1.571,1.127,0.481,0.839,0.790,��,5.3,��
2018/07/16,16:10,0.893,1.275,0.888,1.571,1.129,0.481,0.840,0.790,��쓌,5.9,��
2018/07/16,16:20,0.896,1.276,0.889,1.573,1.131,0.482,0.839,0.790,��,4.1,��
2018/07/16,16:30,0.895,1.277,0.889,1.573,1.128,0.481,0.840,0.791,��,2.9,��
2018/07/16,16:40,0.893,1.278,0.888,1.572,1.130,0.482,0.840,0.792,��쓌,3.2,��
2018/07/16,16:50,0.892,1.276,0.891,1.573,1.130,0.482,0.839,0.791,��,4.6,��
2018/07/16,17:00,0.894,1.275,0.892,1.574,1.130,0.483,0.841,0.792,��,5.6,��
2018/07/16,17:10,0.896,1.274,0.888,1.572,1.130,0.482,0.838,0.793,��,6.8,��
2018/07/16,17:20,0.897,1.273,0.891,1.575,1.129,0.480,0.839,0.794,��,5.6,��
2018/07/16,17:30,0.893,1.275,0.889,1.575,1.132,0.481,0.838,0.792,��,5.2,��
2018/07/16,17:40,0.895,1.275,0.891,1.575,1.129,0.482,0.839,0.792,��,5.5,��
2018/07/16,17:50,0.896,1.275,0.888,1.574,1.130,0.479,0.837,0.791,��,4.4,��
2018/07/16,18:00,0.891,1.274,0.888,1.576,1.129,0.481,0.838,0.791,��쐼,3.7,��
2018/07/16,18:10,0.893,1.274,0.889,1.577,1.129,0.480,0.838,0.791,��쐼,2.5,��
2018/07/16,18:20,0.893,1.274,0.890,1.575,1.129,0.480,0.836,0.791,��쐼,1.1,��
2018/07/16,18:30,0.892,1.272,0.887,1.577,1.127,0.479,0.836,0.789,�쐼,0.8,��
2018/07/16,18:40,0.892,1.274,0.889,1.575,1.130,0.479,0.837,0.791,�쐼,1.2,��
2018/07/16,18:50,0.894,1.273,0.889,1.577,1.128,0.479,0.839,0.791,���쐼,1.2,��
2018/07/16,19:00,0.895,1.275,0.888,1.575,1.129,0.480,0.840,0.790,��쓌,1.4,��
2018/07/16,19:10,0.894,1.274,0.887,1.576,1.129,0.478,0.837,0.790,��,0.9,��
2018/07/16,19:20,0.895,1.273,0.886,1.572,1.129,0.479,0.837,0.792,��,0.8,��
2018/07/16,19:30,0.892,1.277,0.889,1.576,1.127,0.480,0.838,0.791,�k��,2.6,��
2018/07/16,19:40,0.895,1.274,0.889,1.575,1.127,0.480,0.839,0.791,�k�k��,3.2,��
2018/07/16,19:50,0.894,1.273,0.889,1.573,1.130,0.479,0.838,0.793,�k�k��,2.9,��
2018/07/16,20:00,0.892,1.276,0.889,1.575,1.131,0.482,0.837,0.792,�k,3.1,��
2018/07/16,20:10,0.894,1.276,0.887,1.576,1.126,0.478,0.839,0.792,�k�k��,3.6,��
2018/07/16,20:20,0.895,1.276,0.890,1.575,1.127,0.480,0.835,0.791,�k�k��,4.7,��
2018/07/16,20:30,0.894,1.275,0.891,1.577,1.127,0.480,0.837,0.791,�k�k��,3.0,��
2018/07/16,20:40,0.893,1.276,0.890,1.578,1.128,0.479,0.837,0.790,�k�k��,2.3,��
2018/07/16,20:50,0.894,1.275,0.890,1.574,1.129,0.479,0.838,0.793,�k�k��,2.6,��
2018/07/16,21:00,0.892,1.274,0.889,1.577,1.129,0.479,0.837,0.792,�k�k��,3.0,��
2018/07/16,21:10,0.894,1.277,0.887,1.577,1.129,0.478,0.837,0.791,�k��,2.6,��
2018/07/16,21:20,0.894,1.275,0.890,1.576,1.126,0.480,0.839,0.792,�k��,1.7,��
2018/07/16,21:30,0.893,1.278,0.890,1.575,1.127,0.480,0.838,0.793,���k��,2.0,��
2018/07/16,21:40,0.893,1.274,0.890,1.578,1.129,0.479,0.837,0.793,���k��,3.3,��
2018/07/16,21:50,0.893,1.276,0.891,1.575,1.128,0.481,0.837,0.793,��,2.3,��
2018/07/16,22:00,0.895,1.273,0.889,1.576,1.131,0.480,0.840,0.793,��,1.1,��
2018/07/16,22:10,0.892,1.272,0.889,1.579,1.128,0.480,0.838,0.791,��,2.0,��
2018/07/16,22:20,0.891,1.276,0.889,1.577,1.129,0.478,0.838,0.794,��쐼,2.3,��
2018/07/16,22:30,0.893,1.275,0.889,1.577,1.127,0.480,0.837,0.790,��쐼,1.9,��
2018/07/16,22:40,0.894,1.274,0.890,1.577,1.127,0.480,0.838,0.790,�쐼,1.4,��
2018/07/16,22:50,0.893,1.277,0.890,1.577,1.129,0.482,0.839,0.792,�쐼,3.2,��
2018/07/16,23:00,0.893,1.276,0.890,1.578,1.129,0.480,0.840,0.793,��쐼,3.0,��
2018/07/16,23:10,0.891,1.279,0.888,1.577,1.131,0.481,0.839,0.792,��쐼,3.0,��
2018/07/16,23:20,0.892,1.272,0.891,1.577,1.127,0.482,0.839,0.791,��쐼,2.3,��
2018/07/16,23:30,0.892,1.272,0.890,1.579,1.129,0.480,0.839,0.794,�쐼,2.8,��
2018/07/16,23:40,0.892,1.276,0.891,1.578,1.131,0.480,0.840,0.793,�쐼,3.1,��
2018/07/16,23:50,0.893,1.275,0.890,1.576,1.128,0.481,0.839,0.794,���쐼,2.6,��
